Year,Month,Day,Hour,Minute,Value (Times are PST for temperature in C)
2017,12,11,00,00,-0.40
2017,12,11,00,01,-0.50
2017,12,11,00,02,-0.60
2017,12,11,00,03,-0.70
2017,12,11,00,04,-0.80
2017,12,11,00,05,-0.80
2017,12,11,00,06,-0.90
2017,12,11,00,07,-0.90
2017,12,11,00,08,-1.00
2017,12,11,00,09,-1.10
2017,12,11,00,10,-1.10
2017,12,11,00,11,-1.10
2017,12,11,00,12,-1.10
2017,12,11,00,13,-1.20
2017,12,11,00,14,-1.20
2017,12,11,00,15,-1.20
2017,12,11,00,16,-1.20
2017,12,11,00,17,-1.20
2017,12,11,00,18,-1.20
2017,12,11,00,19,-1.20
2017,12,11,00,20,-1.10
2017,12,11,00,21,-1.10
2017,12,11,00,22,-1.10
2017,12,11,00,23,-1.10
2017,12,11,00,24,-1.00
2017,12,11,00,25,-1.00
2017,12,11,00,26,-1.00
2017,12,11,00,27,-1.00
2017,12,11,00,28,-1.10
2017,12,11,00,29,-1.10
2017,12,11,00,30,-1.10
2017,12,11,00,31,-1.10
2017,12,11,00,32,-1.10
2017,12,11,00,33,-1.10
2017,12,11,00,34,-1.20
2017,12,11,00,35,-1.20
2017,12,11,00,36,-1.20
2017,12,11,00,37,-1.30
2017,12,11,00,38,-1.30
2017,12,11,00,39,-1.30
2017,12,11,00,40,-1.30
2017,12,11,00,41,-1.30
2017,12,11,00,42,-1.30
2017,12,11,00,43,-1.40
2017,12,11,00,44,-1.40
2017,12,11,00,45,-1.40
2017,12,11,00,46,-1.50
2017,12,11,00,47,-1.50
2017,12,11,00,48,-1.60
2017,12,11,00,49,-1.60
2017,12,11,00,50,-1.60
2017,12,11,00,51,-1.60
2017,12,11,00,52,-1.50
2017,12,11,00,53,-1.50
2017,12,11,00,54,-1.40
2017,12,11,00,55,-1.40
2017,12,11,00,56,-1.30
2017,12,11,00,57,-1.30
2017,12,11,00,58,-1.20
2017,12,11,00,59,-1.20
2017,12,11,01,00,-1.20
2017,12,11,01,01,-1.20
2017,12,11,01,02,-1.20
2017,12,11,01,03,-1.20
2017,12,11,01,04,-1.20
2017,12,11,01,05,-1.20
2017,12,11,01,06,-1.20
2017,12,11,01,07,-1.30
2017,12,11,01,08,-1.30
2017,12,11,01,09,-1.40
2017,12,11,01,10,-1.40
2017,12,11,01,11,-1.40
2017,12,11,01,12,-1.40
2017,12,11,01,13,-1.40
2017,12,11,01,14,-1.50
2017,12,11,01,15,-1.50
2017,12,11,01,16,-1.50
2017,12,11,01,17,-1.50
2017,12,11,01,18,-1.60
2017,12,11,01,19,-1.60
2017,12,11,01,20,-1.60
2017,12,11,01,21,-1.60
2017,12,11,01,22,-1.60
2017,12,11,01,23,-1.60
2017,12,11,01,24,-1.60
2017,12,11,01,25,-1.60
2017,12,11,01,26,-1.60
2017,12,11,01,27,-1.60
2017,12,11,01,28,-1.60
2017,12,11,01,29,-1.60
2017,12,11,01,30,-1.60
2017,12,11,01,31,-1.60
2017,12,11,01,32,-1.60
2017,12,11,01,33,-1.50
2017,12,11,01,34,-1.50
2017,12,11,01,35,-1.50
2017,12,11,01,36,-1.50
2017,12,11,01,37,-1.60
2017,12,11,01,38,-1.60
2017,12,11,01,39,-1.60
2017,12,11,01,40,-1.60
2017,12,11,01,41,-1.60
2017,12,11,01,42,-1.60
2017,12,11,01,43,-1.60
2017,12,11,01,44,-1.70
2017,12,11,01,45,-1.70
2017,12,11,01,46,-1.70
2017,12,11,01,47,-1.70
2017,12,11,01,48,-1.70
2017,12,11,01,49,-1.70
2017,12,11,01,50,-1.70
2017,12,11,01,51,-1.80
2017,12,11,01,52,-1.70
2017,12,11,01,53,-1.70
2017,12,11,01,54,-1.70
2017,12,11,01,55,-1.60
2017,12,11,01,56,-1.60
2017,12,11,01,57,-1.60
2017,12,11,01,58,-1.60
2017,12,11,01,59,-1.60
2017,12,11,02,00,-1.60
2017,12,11,02,01,-1.60
2017,12,11,02,02,-1.60
2017,12,11,02,03,-1.60
2017,12,11,02,04,-1.60
2017,12,11,02,05,-1.60
2017,12,11,02,06,-1.60
2017,12,11,02,07,-1.50
2017,12,11,02,08,-1.50
2017,12,11,02,09,-1.50
2017,12,11,02,10,-1.50
2017,12,11,02,11,-1.50
2017,12,11,02,12,-1.50
2017,12,11,02,13,-1.50
2017,12,11,02,14,-1.50
2017,12,11,02,15,-1.50
2017,12,11,02,16,-1.50
2017,12,11,02,17,-1.60
2017,12,11,02,18,-1.60
2017,12,11,02,19,-1.70
2017,12,11,02,20,-1.70
2017,12,11,02,21,-1.70
2017,12,11,02,22,-1.70
2017,12,11,02,23,-1.70
2017,12,11,02,24,-1.70
2017,12,11,02,25,-1.70
2017,12,11,02,26,-1.80
2017,12,11,02,27,-1.80
2017,12,11,02,28,-1.80
2017,12,11,02,29,-1.80
2017,12,11,02,30,-1.80
2017,12,11,02,31,-1.80
2017,12,11,02,32,-1.80
2017,12,11,02,33,-1.80
2017,12,11,02,34,-1.90
2017,12,11,02,35,-1.90
2017,12,11,02,36,-1.90
2017,12,11,02,37,-1.90
2017,12,11,02,38,-1.90
2017,12,11,02,39,-1.90
2017,12,11,02,40,-2.00
2017,12,11,02,41,-2.00
2017,12,11,02,42,-2.00
2017,12,11,02,43,-2.00
2017,12,11,02,44,-1.90
2017,12,11,02,45,-1.90
2017,12,11,02,46,-1.90
2017,12,11,02,47,-1.90
2017,12,11,02,48,-2.00
2017,12,11,02,49,-2.00
2017,12,11,02,50,-1.90
2017,12,11,02,51,-1.90
2017,12,11,02,52,-1.90
2017,12,11,02,53,-1.80
2017,12,11,02,54,-1.80
2017,12,11,02,55,-1.80
2017,12,11,02,56,-1.80
2017,12,11,02,57,-1.80
2017,12,11,02,58,-1.80
2017,12,11,02,59,-1.90
2017,12,11,03,00,-1.90
2017,12,11,03,01,-1.90
2017,12,11,03,02,-1.90
2017,12,11,03,03,-1.90
2017,12,11,03,04,-1.90
2017,12,11,03,05,-1.80
2017,12,11,03,06,-1.80
2017,12,11,03,07,-1.80
2017,12,11,03,08,-1.80
2017,12,11,03,09,-1.90
2017,12,11,03,10,-1.90
2017,12,11,03,11,-1.90
2017,12,11,03,12,-1.90
2017,12,11,03,13,-2.00
2017,12,11,03,14,-2.00
2017,12,11,03,15,-2.00
2017,12,11,03,16,-2.00
2017,12,11,03,17,-2.00
2017,12,11,03,18,-2.00
2017,12,11,03,19,-2.00
2017,12,11,03,20,-2.00
2017,12,11,03,21,-2.00
2017,12,11,03,22,-2.10
2017,12,11,03,23,-2.10
2017,12,11,03,24,-2.10
2017,12,11,03,25,-2.00
2017,12,11,03,26,-2.00
2017,12,11,03,27,-2.00
2017,12,11,03,28,-1.90
2017,12,11,03,29,-1.90
2017,12,11,03,30,-1.90
2017,12,11,03,31,-2.00
2017,12,11,03,32,-2.00
2017,12,11,03,33,-2.00
2017,12,11,03,34,-2.00
2017,12,11,03,35,-2.00
2017,12,11,03,36,-2.00
2017,12,11,03,37,-2.00
2017,12,11,03,38,-2.00
2017,12,11,03,39,-2.00
2017,12,11,03,40,-2.00
2017,12,11,03,41,-2.10
2017,12,11,03,42,-2.10
2017,12,11,03,43,-2.10
2017,12,11,03,44,-2.10
2017,12,11,03,45,-2.20
2017,12,11,03,46,-2.20
2017,12,11,03,47,-2.20
2017,12,11,03,48,-2.20
2017,12,11,03,49,-2.20
2017,12,11,03,50,-2.20
2017,12,11,03,51,-2.20
2017,12,11,03,52,-2.20
2017,12,11,03,53,-2.20
2017,12,11,03,54,-2.20
2017,12,11,03,55,-2.20
2017,12,11,03,56,-2.20
2017,12,11,03,57,-2.20
2017,12,11,03,58,-2.20
2017,12,11,03,59,-2.20
2017,12,11,04,00,-2.20
2017,12,11,04,01,-2.10
2017,12,11,04,02,-2.10
2017,12,11,04,03,-2.20
2017,12,11,04,04,-2.20
2017,12,11,04,05,-2.20
2017,12,11,04,06,-2.20
2017,12,11,04,07,-2.20
2017,12,11,04,08,-2.20
2017,12,11,04,09,-2.30
2017,12,11,04,10,-2.30
2017,12,11,04,11,-2.30
2017,12,11,04,12,-2.30
2017,12,11,04,13,-2.30
2017,12,11,04,14,-2.40
2017,12,11,04,15,-2.40
2017,12,11,04,16,-2.40
2017,12,11,04,17,-2.40
2017,12,11,04,18,-2.50
2017,12,11,04,19,-2.50
2017,12,11,04,20,-2.50
2017,12,11,04,21,-2.50
2017,12,11,04,22,-2.50
2017,12,11,04,23,-2.50
2017,12,11,04,24,-2.50
2017,12,11,04,25,-2.50
2017,12,11,04,26,-2.50
2017,12,11,04,27,-2.50
2017,12,11,04,28,-2.50
2017,12,11,04,29,-2.60
2017,12,11,04,30,-2.60
2017,12,11,04,31,-2.60
2017,12,11,04,32,-2.60
2017,12,11,04,33,-2.60
2017,12,11,04,34,-2.70
2017,12,11,04,35,-2.70
2017,12,11,04,36,-2.70
2017,12,11,04,37,-2.70
2017,12,11,04,38,-2.70
2017,12,11,04,39,-2.70
2017,12,11,04,40,-2.70
2017,12,11,04,41,-2.70
2017,12,11,04,42,-2.70
2017,12,11,04,43,-2.70
2017,12,11,04,44,-2.70
2017,12,11,04,45,-2.70
2017,12,11,04,46,-2.70
2017,12,11,04,47,-2.70
2017,12,11,04,48,-2.70
2017,12,11,04,49,-2.70
2017,12,11,04,50,-2.60
2017,12,11,04,51,-2.60
2017,12,11,04,52,-2.50
2017,12,11,04,53,-2.50
2017,12,11,04,54,-2.50
2017,12,11,04,55,-2.40
2017,12,11,04,56,-2.40
2017,12,11,04,57,-2.40
2017,12,11,04,58,-2.40
2017,12,11,04,59,-2.40
2017,12,11,05,00,-2.40
2017,12,11,05,01,-2.40
2017,12,11,05,02,-2.40
2017,12,11,05,03,-2.40
2017,12,11,05,04,-2.50
2017,12,11,05,05,-2.50
2017,12,11,05,06,-2.50
2017,12,11,05,07,-2.60
2017,12,11,05,08,-2.60
2017,12,11,05,09,-2.60
2017,12,11,05,10,-2.70
2017,12,11,05,11,-2.70
2017,12,11,05,12,-2.70
2017,12,11,05,13,-2.70
2017,12,11,05,14,-2.70
2017,12,11,05,15,-2.70
2017,12,11,05,16,-2.70
2017,12,11,05,17,-2.70
2017,12,11,05,18,-2.70
2017,12,11,05,19,-2.70
2017,12,11,05,20,-2.70
2017,12,11,05,21,-2.70
2017,12,11,05,22,-2.70
2017,12,11,05,23,-2.70
2017,12,11,05,24,-2.70
2017,12,11,05,25,-2.80
2017,12,11,05,26,-2.80
2017,12,11,05,27,-2.80
2017,12,11,05,28,-2.70
2017,12,11,05,29,-2.70
2017,12,11,05,30,-2.70
2017,12,11,05,31,-2.70
2017,12,11,05,32,-2.70
2017,12,11,05,33,-2.80
2017,12,11,05,34,-2.80
2017,12,11,05,35,-2.80
2017,12,11,05,36,-2.80
2017,12,11,05,37,-2.80
2017,12,11,05,38,-2.80
2017,12,11,05,39,-2.80
2017,12,11,05,40,-2.80
2017,12,11,05,41,-2.80
2017,12,11,05,42,-2.80
2017,12,11,05,43,-2.80
2017,12,11,05,44,-2.80
2017,12,11,05,45,-2.80
2017,12,11,05,46,-2.80
2017,12,11,05,47,-2.80
2017,12,11,05,48,-2.80
2017,12,11,05,49,-2.70
2017,12,11,05,50,-2.70
2017,12,11,05,51,-2.70
2017,12,11,05,52,-2.70
2017,12,11,05,53,-2.70
2017,12,11,05,54,-2.70
2017,12,11,05,55,-2.70
2017,12,11,05,56,-2.70
2017,12,11,05,57,-2.70
2017,12,11,05,58,-2.80
2017,12,11,05,59,-2.80
2017,12,11,06,00,-2.80
2017,12,11,06,01,-2.80
2017,12,11,06,02,-2.80
2017,12,11,06,03,-2.80
2017,12,11,06,04,-2.80
2017,12,11,06,05,-2.80
2017,12,11,06,06,-2.80
2017,12,11,06,07,-2.90
2017,12,11,06,08,-2.90
2017,12,11,06,09,-2.90
2017,12,11,06,10,-2.90
2017,12,11,06,11,-2.90
2017,12,11,06,12,-2.90
2017,12,11,06,13,-2.80
2017,12,11,06,14,-2.80
2017,12,11,06,15,-2.80
2017,12,11,06,16,-2.70
2017,12,11,06,17,-2.70
2017,12,11,06,18,-2.70
2017,12,11,06,19,-2.70
2017,12,11,06,20,-2.70
2017,12,11,06,21,-2.70
2017,12,11,06,22,-2.70
2017,12,11,06,23,-2.70
2017,12,11,06,24,-2.80
2017,12,11,06,25,-2.80
2017,12,11,06,26,-2.80
2017,12,11,06,27,-2.80
2017,12,11,06,28,-2.80
2017,12,11,06,29,-2.80
2017,12,11,06,30,-2.90
2017,12,11,06,31,-2.80
2017,12,11,06,32,-2.80
2017,12,11,06,33,-2.80
2017,12,11,06,34,-2.90
2017,12,11,06,35,-2.90
2017,12,11,06,36,-2.90
2017,12,11,06,37,-2.90
2017,12,11,06,38,-2.90
2017,12,11,06,39,-2.90
2017,12,11,06,40,-3.00
2017,12,11,06,41,-3.00
2017,12,11,06,42,-3.00
2017,12,11,06,43,-3.10
2017,12,11,06,44,-3.10
2017,12,11,06,45,-3.20
2017,12,11,06,46,-3.20
2017,12,11,06,47,-3.20
2017,12,11,06,48,-3.20
2017,12,11,06,49,-3.20
2017,12,11,06,50,-3.30
2017,12,11,06,51,-3.30
2017,12,11,06,52,-3.30
2017,12,11,06,53,-3.30
2017,12,11,06,54,-3.30
2017,12,11,06,55,-3.30
2017,12,11,06,56,-3.30
2017,12,11,06,57,-3.30
2017,12,11,06,58,-3.30
2017,12,11,06,59,-3.30
2017,12,11,07,00,-3.30
2017,12,11,07,01,-3.30
2017,12,11,07,02,-3.30
2017,12,11,07,03,-3.30
2017,12,11,07,04,-3.20
2017,12,11,07,05,-3.20
2017,12,11,07,06,-3.20
2017,12,11,07,07,-3.20
2017,12,11,07,08,-3.20
2017,12,11,07,09,-3.20
2017,12,11,07,10,-3.20
2017,12,11,07,11,-3.20
2017,12,11,07,12,-3.20
2017,12,11,07,13,-3.20
2017,12,11,07,14,-3.20
2017,12,11,07,15,-3.20
2017,12,11,07,16,-3.20
2017,12,11,07,17,-3.20
2017,12,11,07,18,-3.10
2017,12,11,07,19,-3.10
2017,12,11,07,20,-3.10
2017,12,11,07,21,-3.00
2017,12,11,07,22,-3.00
2017,12,11,07,23,-3.00
2017,12,11,07,24,-3.00
2017,12,11,07,25,-3.00
2017,12,11,07,26,-2.90
2017,12,11,07,27,-2.90
2017,12,11,07,28,-2.90
2017,12,11,07,29,-2.90
2017,12,11,07,30,-2.80
2017,12,11,07,31,-2.80
2017,12,11,07,32,-2.80
2017,12,11,07,33,-2.80
2017,12,11,07,34,-2.80
2017,12,11,07,35,-2.90
2017,12,11,07,36,-2.90
2017,12,11,07,37,-2.90
2017,12,11,07,38,-2.90
2017,12,11,07,39,-2.90
2017,12,11,07,40,-2.90
2017,12,11,07,41,-2.80
2017,12,11,07,42,-2.80
2017,12,11,07,43,-2.80
2017,12,11,07,44,-2.80
2017,12,11,07,45,-2.80
2017,12,11,07,46,-2.80
2017,12,11,07,47,-2.80
2017,12,11,07,48,-2.70
2017,12,11,07,49,-2.70
2017,12,11,07,50,-2.70
2017,12,11,07,51,-2.70
2017,12,11,07,52,-2.70
2017,12,11,07,53,-2.70
2017,12,11,07,54,-2.70
2017,12,11,07,55,-2.70
2017,12,11,07,56,-2.60
2017,12,11,07,57,-2.50
2017,12,11,07,58,-2.40
2017,12,11,07,59,-2.40
2017,12,11,08,00,-2.30
2017,12,11,08,01,-2.20
2017,12,11,08,02,-2.20
2017,12,11,08,03,-2.20
2017,12,11,08,04,-2.20
2017,12,11,08,05,-2.20
2017,12,11,08,06,-2.30
2017,12,11,08,07,-2.30
2017,12,11,08,08,-2.40
2017,12,11,08,09,-2.40
2017,12,11,08,10,-2.40
2017,12,11,08,11,-2.50
2017,12,11,08,12,-2.50
2017,12,11,08,13,-2.50
2017,12,11,08,14,-2.60
2017,12,11,08,15,-2.60
2017,12,11,08,16,-2.60
2017,12,11,08,17,-2.60
2017,12,11,08,18,-2.60
2017,12,11,08,19,-2.60
2017,12,11,08,20,-2.60
2017,12,11,08,21,-2.60
2017,12,11,08,22,-2.60
2017,12,11,08,23,-2.60
2017,12,11,08,24,-2.60
2017,12,11,08,25,-2.60
2017,12,11,08,26,-2.60
2017,12,11,08,27,-2.70
2017,12,11,08,28,-2.70
2017,12,11,08,29,-2.70
2017,12,11,08,30,-2.60
2017,12,11,08,31,-2.60
2017,12,11,08,32,-2.60
2017,12,11,08,33,-2.60
2017,12,11,08,34,-2.50
2017,12,11,08,35,-2.50
2017,12,11,08,36,-2.40
2017,12,11,08,37,-2.40
2017,12,11,08,38,-2.40
2017,12,11,08,39,-2.30
2017,12,11,08,40,-2.30
2017,12,11,08,41,-2.30
2017,12,11,08,42,-2.30
2017,12,11,08,43,-2.30
2017,12,11,08,44,-2.30
2017,12,11,08,45,-2.30
2017,12,11,08,46,-2.30
2017,12,11,08,47,-2.30
2017,12,11,08,48,-2.30
2017,12,11,08,49,-2.30
2017,12,11,08,50,-2.30
2017,12,11,08,51,-2.30
2017,12,11,08,52,-2.30
2017,12,11,08,53,-2.30
2017,12,11,08,54,-2.30
2017,12,11,08,55,-2.30
2017,12,11,08,56,-2.30
2017,12,11,08,57,-2.30
2017,12,11,08,58,-2.20
2017,12,11,08,59,-2.20
2017,12,11,09,00,-2.20
2017,12,11,09,01,-2.20
2017,12,11,09,02,-2.20
2017,12,11,09,03,-2.20
2017,12,11,09,04,-2.20
2017,12,11,09,05,-2.20
2017,12,11,09,06,-2.20
2017,12,11,09,07,-2.20
2017,12,11,09,08,-2.20
2017,12,11,09,09,-2.20
2017,12,11,09,10,-2.20
2017,12,11,09,11,-2.20
2017,12,11,09,12,-2.20
2017,12,11,09,13,-2.10
2017,12,11,09,14,-2.10
2017,12,11,09,15,-2.00
2017,12,11,09,16,-2.00
2017,12,11,09,17,-1.90
2017,12,11,09,18,-1.80
2017,12,11,09,19,-1.70
2017,12,11,09,20,-1.60
2017,12,11,09,21,-1.50
2017,12,11,09,22,-1.40
2017,12,11,09,23,-1.40
2017,12,11,09,24,-1.40
2017,12,11,09,25,-1.40
2017,12,11,09,26,-1.30
2017,12,11,09,27,-1.30
2017,12,11,09,28,-1.30
2017,12,11,09,29,-1.30
2017,12,11,09,30,-1.30
2017,12,11,09,31,-1.30
2017,12,11,09,32,-1.30
2017,12,11,09,33,-1.30
2017,12,11,09,34,-1.30
2017,12,11,09,35,-1.20
2017,12,11,09,36,-1.20
2017,12,11,09,37,-1.20
2017,12,11,09,38,-1.20
2017,12,11,09,39,-1.20
2017,12,11,09,40,-1.20
2017,12,11,09,41,-1.20
2017,12,11,09,42,-1.20
2017,12,11,09,43,-1.20
2017,12,11,09,44,-1.10
2017,12,11,09,45,-1.10
2017,12,11,09,46,-1.10
2017,12,11,09,47,-1.00
2017,12,11,09,48,-1.00
2017,12,11,09,49,-1.00
2017,12,11,09,50,-0.90
2017,12,11,09,51,-0.90
2017,12,11,09,52,-0.90
2017,12,11,09,53,-0.80
2017,12,11,09,54,-0.80
2017,12,11,09,55,-0.70
2017,12,11,09,56,-0.70
2017,12,11,09,57,-0.70
2017,12,11,09,58,-0.60
2017,12,11,09,59,-0.60
2017,12,11,10,00,-0.50
2017,12,11,10,01,-0.50
2017,12,11,10,02,-0.40
2017,12,11,10,03,-0.30
2017,12,11,10,04,-0.20
2017,12,11,10,05,0.00
2017,12,11,10,06,0.00
2017,12,11,10,07,0.10
2017,12,11,10,08,0.20
2017,12,11,10,09,0.30
2017,12,11,10,10,0.30
2017,12,11,10,11,0.40
2017,12,11,10,12,0.40
2017,12,11,10,13,0.40
2017,12,11,10,14,0.50
2017,12,11,10,15,0.50
2017,12,11,10,16,0.60
2017,12,11,10,17,0.60
2017,12,11,10,18,0.70
2017,12,11,10,19,0.80
2017,12,11,10,20,0.80
2017,12,11,10,21,0.90
2017,12,11,10,22,0.90
2017,12,11,10,23,1.00
2017,12,11,10,24,1.00
2017,12,11,10,25,1.00
2017,12,11,10,26,1.10
2017,12,11,10,27,1.00
2017,12,11,10,28,1.00
2017,12,11,10,29,1.00
2017,12,11,10,30,1.00
2017,12,11,10,31,1.10
2017,12,11,10,32,1.10
2017,12,11,10,33,1.20
2017,12,11,10,34,1.20
2017,12,11,10,35,1.30
2017,12,11,10,36,1.30
2017,12,11,10,37,1.30
2017,12,11,10,38,1.30
2017,12,11,10,39,1.40
2017,12,11,10,40,1.40
2017,12,11,10,41,1.50
2017,12,11,10,42,1.60
2017,12,11,10,43,1.70
2017,12,11,10,44,1.70
2017,12,11,10,45,1.80
2017,12,11,10,46,1.90
2017,12,11,10,47,2.00
2017,12,11,10,48,2.00
2017,12,11,10,49,2.10
2017,12,11,10,50,2.20
2017,12,11,10,51,2.30
2017,12,11,10,52,2.30
2017,12,11,10,53,2.40
2017,12,11,10,54,2.40
2017,12,11,10,55,2.50
2017,12,11,10,56,2.50
2017,12,11,10,57,2.60
2017,12,11,10,58,2.60
2017,12,11,10,59,2.60
2017,12,11,11,00,2.60
2017,12,11,11,01,2.70
2017,12,11,11,02,2.70
2017,12,11,11,03,2.70
2017,12,11,11,04,2.70
2017,12,11,11,05,2.80
2017,12,11,11,06,2.80
2017,12,11,11,07,2.90
2017,12,11,11,08,2.90
2017,12,11,11,09,2.90
2017,12,11,11,10,3.00
2017,12,11,11,11,3.00
2017,12,11,11,12,3.10
2017,12,11,11,13,3.10
2017,12,11,11,14,3.30
2017,12,11,11,15,3.40
2017,12,11,11,16,3.60
2017,12,11,11,17,3.70
2017,12,11,11,18,3.80
2017,12,11,11,19,4.00
2017,12,11,11,20,4.10
2017,12,11,11,21,4.30
2017,12,11,11,22,4.50
2017,12,11,11,23,4.60
2017,12,11,11,24,4.80
2017,12,11,11,25,4.90
2017,12,11,11,26,5.00
2017,12,11,11,27,5.10
2017,12,11,11,28,5.20
2017,12,11,11,29,5.30
2017,12,11,11,30,5.30
2017,12,11,11,31,5.30
2017,12,11,11,32,5.40
2017,12,11,11,33,5.30
2017,12,11,11,34,5.40
2017,12,11,11,35,5.40
2017,12,11,11,36,5.40
2017,12,11,11,37,5.40
2017,12,11,11,38,5.50
2017,12,11,11,39,5.60
2017,12,11,11,40,5.70
2017,12,11,11,41,5.70
2017,12,11,11,42,5.80
2017,12,11,11,43,5.90
2017,12,11,11,44,5.90
2017,12,11,11,45,6.00
2017,12,11,11,46,6.10
2017,12,11,11,47,6.20
2017,12,11,11,48,6.20
2017,12,11,11,49,6.30
2017,12,11,11,50,6.40
2017,12,11,11,51,6.50
2017,12,11,11,52,6.50
2017,12,11,11,53,6.60
2017,12,11,11,54,6.70
2017,12,11,11,55,6.70
2017,12,11,11,56,6.80
2017,12,11,11,57,6.80
2017,12,11,11,58,6.80
2017,12,11,11,59,6.80
2017,12,11,12,00,6.80
2017,12,11,12,01,6.80
2017,12,11,12,02,6.80
2017,12,11,12,03,6.90
2017,12,11,12,04,6.90
2017,12,11,12,05,6.90
2017,12,11,12,06,7.00
2017,12,11,12,07,7.00
2017,12,11,12,08,7.00
2017,12,11,12,09,7.00
2017,12,11,12,10,7.10
2017,12,11,12,11,7.10
2017,12,11,12,12,7.10
2017,12,11,12,13,7.20
2017,12,11,12,14,7.20
2017,12,11,12,15,7.20
2017,12,11,12,16,7.30
2017,12,11,12,17,7.30
2017,12,11,12,18,7.30
2017,12,11,12,19,7.40
2017,12,11,12,20,7.40
2017,12,11,12,21,7.40
2017,12,11,12,22,7.40
2017,12,11,12,23,7.50
2017,12,11,12,24,7.50
2017,12,11,12,25,7.60
2017,12,11,12,26,7.60
2017,12,11,12,27,7.60
2017,12,11,12,28,7.60
2017,12,11,12,29,7.60
2017,12,11,12,30,7.60
2017,12,11,12,31,7.70
2017,12,11,12,32,7.70
2017,12,11,12,33,7.70
2017,12,11,12,34,7.70
2017,12,11,12,35,7.70
2017,12,11,12,36,7.80
2017,12,11,12,37,7.70
2017,12,11,12,38,7.70
2017,12,11,12,39,7.70
2017,12,11,12,40,7.70
2017,12,11,12,41,7.70
2017,12,11,12,42,7.70
2017,12,11,12,43,7.60
2017,12,11,12,44,7.60
2017,12,11,12,45,7.60
2017,12,11,12,46,7.60
2017,12,11,12,47,7.70
2017,12,11,12,48,7.70
2017,12,11,12,49,7.70
2017,12,11,12,50,7.70
2017,12,11,12,51,7.70
2017,12,11,12,52,7.70
2017,12,11,12,53,7.70
2017,12,11,12,54,7.70
2017,12,11,12,55,7.80
2017,12,11,12,56,7.80
2017,12,11,12,57,7.80
2017,12,11,12,58,7.90
2017,12,11,12,59,7.90
2017,12,11,13,00,7.90
2017,12,11,13,01,7.90
2017,12,11,13,02,7.80
2017,12,11,13,03,7.80
2017,12,11,13,04,7.80
2017,12,11,13,05,7.90
2017,12,11,13,06,7.90
2017,12,11,13,07,7.90
2017,12,11,13,08,7.90
2017,12,11,13,09,8.00
2017,12,11,13,10,7.90
2017,12,11,13,11,7.90
2017,12,11,13,12,7.90
2017,12,11,13,13,7.90
2017,12,11,13,14,7.90
2017,12,11,13,15,7.90
2017,12,11,13,16,8.00
2017,12,11,13,17,8.00
2017,12,11,13,18,8.10
2017,12,11,13,19,8.20
2017,12,11,13,20,8.20
2017,12,11,13,21,8.30
2017,12,11,13,22,8.30
2017,12,11,13,23,8.40
2017,12,11,13,24,8.40
2017,12,11,13,25,8.50
2017,12,11,13,26,8.50
2017,12,11,13,27,8.50
2017,12,11,13,28,8.60
2017,12,11,13,29,8.60
2017,12,11,13,30,8.60
2017,12,11,13,31,8.60
2017,12,11,13,32,8.60
2017,12,11,13,33,8.60
2017,12,11,13,34,8.60
2017,12,11,13,35,8.60
2017,12,11,13,36,8.60
2017,12,11,13,37,8.60
2017,12,11,13,38,8.60
2017,12,11,13,39,8.50
2017,12,11,13,40,8.40
2017,12,11,13,41,8.30
2017,12,11,13,42,8.30
2017,12,11,13,43,8.20
2017,12,11,13,44,8.20
2017,12,11,13,45,8.20
2017,12,11,13,46,8.30
2017,12,11,13,47,8.30
2017,12,11,13,48,8.30
2017,12,11,13,49,8.30
2017,12,11,13,50,8.30
2017,12,11,13,51,8.20
2017,12,11,13,52,8.20
2017,12,11,13,53,8.20
2017,12,11,13,54,8.20
2017,12,11,13,55,8.30
2017,12,11,13,56,8.30
2017,12,11,13,57,8.30
2017,12,11,13,58,8.30
2017,12,11,13,59,8.40
2017,12,11,14,00,8.40
2017,12,11,14,01,8.40
2017,12,11,14,02,8.40
2017,12,11,14,03,8.40
2017,12,11,14,04,8.40
2017,12,11,14,05,8.40
2017,12,11,14,06,8.40
2017,12,11,14,07,8.40
2017,12,11,14,08,8.40
2017,12,11,14,09,8.50
2017,12,11,14,10,8.50
2017,12,11,14,11,8.60
2017,12,11,14,12,8.60
2017,12,11,14,13,8.60
2017,12,11,14,14,8.60
2017,12,11,14,15,8.60
2017,12,11,14,16,8.70
2017,12,11,14,17,8.70
2017,12,11,14,18,8.70
2017,12,11,14,19,8.70
2017,12,11,14,20,8.70
2017,12,11,14,21,8.80
2017,12,11,14,22,8.80
2017,12,11,14,23,8.80
2017,12,11,14,24,8.90
2017,12,11,14,25,8.90
2017,12,11,14,26,8.90
2017,12,11,14,27,8.80
2017,12,11,14,28,8.80
2017,12,11,14,29,8.80
2017,12,11,14,30,8.80
2017,12,11,14,31,8.80
2017,12,11,14,32,8.80
2017,12,11,14,33,8.80
2017,12,11,14,34,8.80
2017,12,11,14,35,8.80
2017,12,11,14,36,8.80
2017,12,11,14,37,8.80
2017,12,11,14,38,8.80
2017,12,11,14,39,8.80
2017,12,11,14,40,8.80
2017,12,11,14,41,8.80
2017,12,11,14,42,8.80
2017,12,11,14,43,8.80
2017,12,11,14,44,8.80
2017,12,11,14,45,8.80
2017,12,11,14,46,8.70
2017,12,11,14,47,8.70
2017,12,11,14,48,8.70
2017,12,11,14,49,8.70
2017,12,11,14,50,8.60
2017,12,11,14,51,8.60
2017,12,11,14,52,8.60
2017,12,11,14,53,8.60
2017,12,11,14,54,8.60
2017,12,11,14,55,8.60
2017,12,11,14,56,8.60
2017,12,11,14,57,8.60
2017,12,11,14,58,8.50
2017,12,11,14,59,8.50
2017,12,11,15,00,8.50
2017,12,11,15,01,8.50
2017,12,11,15,02,8.50
2017,12,11,15,03,8.50
2017,12,11,15,04,8.50
2017,12,11,15,05,8.50
2017,12,11,15,06,8.50
2017,12,11,15,07,8.50
2017,12,11,15,08,8.50
2017,12,11,15,09,8.40
2017,12,11,15,10,8.40
2017,12,11,15,11,8.40
2017,12,11,15,12,8.40
2017,12,11,15,13,8.40
2017,12,11,15,14,8.30
2017,12,11,15,15,8.30
2017,12,11,15,16,8.20
2017,12,11,15,17,8.20
2017,12,11,15,18,8.10
2017,12,11,15,19,8.10
2017,12,11,15,20,8.00
2017,12,11,15,21,7.90
2017,12,11,15,22,7.90
2017,12,11,15,23,7.80
2017,12,11,15,24,7.80
2017,12,11,15,25,7.80
2017,12,11,15,26,7.70
2017,12,11,15,27,7.70
2017,12,11,15,28,7.60
2017,12,11,15,29,7.60
2017,12,11,15,30,7.60
2017,12,11,15,31,7.50
2017,12,11,15,32,7.50
2017,12,11,15,33,7.50
2017,12,11,15,34,7.50
2017,12,11,15,35,7.40
2017,12,11,15,36,7.40
2017,12,11,15,37,7.40
2017,12,11,15,38,7.40
2017,12,11,15,39,7.40
2017,12,11,15,40,7.50
2017,12,11,15,41,7.50
2017,12,11,15,42,7.50
2017,12,11,15,43,7.50
2017,12,11,15,44,7.50
2017,12,11,15,45,7.50
2017,12,11,15,46,7.50
2017,12,11,15,47,7.50
2017,12,11,15,48,7.60
2017,12,11,15,49,7.60
2017,12,11,15,50,7.60
2017,12,11,15,51,7.60
2017,12,11,15,52,7.50
2017,12,11,15,53,7.50
2017,12,11,15,54,7.50
2017,12,11,15,55,7.40
2017,12,11,15,56,7.40
2017,12,11,15,57,7.30
2017,12,11,15,58,7.20
2017,12,11,15,59,7.20
2017,12,11,16,00,7.20
2017,12,11,16,01,7.10
2017,12,11,16,02,7.10
2017,12,11,16,03,7.00
2017,12,11,16,04,7.00
2017,12,11,16,05,7.00
2017,12,11,16,06,6.90
2017,12,11,16,07,6.90
2017,12,11,16,08,6.90
2017,12,11,16,09,6.80
2017,12,11,16,10,6.80
2017,12,11,16,11,6.80
2017,12,11,16,12,6.80
2017,12,11,16,13,6.70
2017,12,11,16,14,6.70
2017,12,11,16,15,6.70
2017,12,11,16,16,6.70
2017,12,11,16,17,6.60
2017,12,11,16,18,6.50
2017,12,11,16,19,6.50
2017,12,11,16,20,6.50
2017,12,11,16,21,6.50
2017,12,11,16,22,6.30
2017,12,11,16,23,6.30
2017,12,11,16,24,6.30
2017,12,11,16,25,6.20
2017,12,11,16,26,6.20
2017,12,11,16,27,6.20
2017,12,11,16,28,6.20
2017,12,11,16,29,6.10
2017,12,11,16,30,6.10
2017,12,11,16,31,6.10
2017,12,11,16,32,6.10
2017,12,11,16,33,6.10
2017,12,11,16,34,6.10
2017,12,11,16,35,6.20
2017,12,11,16,36,6.20
2017,12,11,16,37,6.30
2017,12,11,16,38,6.30
2017,12,11,16,39,6.40
2017,12,11,16,40,6.50
2017,12,11,16,41,6.60
2017,12,11,16,42,6.60
2017,12,11,16,43,6.70
2017,12,11,16,44,6.70
2017,12,11,16,45,6.70
2017,12,11,16,46,6.80
2017,12,11,16,47,6.80
2017,12,11,16,48,6.90
2017,12,11,16,49,7.00
2017,12,11,16,50,7.00
2017,12,11,16,51,7.10
2017,12,11,16,52,7.10
2017,12,11,16,53,7.10
2017,12,11,16,54,7.20
2017,12,11,16,55,7.20
2017,12,11,16,56,7.20
2017,12,11,16,57,7.30
2017,12,11,16,58,7.40
2017,12,11,16,59,7.40
2017,12,11,17,00,7.50
2017,12,11,17,01,7.50
2017,12,11,17,02,7.50
2017,12,11,17,03,7.50
2017,12,11,17,04,7.50
2017,12,11,17,05,7.60
2017,12,11,17,06,7.60
2017,12,11,17,07,7.60
2017,12,11,17,08,7.60
2017,12,11,17,09,7.50
2017,12,11,17,10,7.50
2017,12,11,17,11,7.50
2017,12,11,17,12,7.50
2017,12,11,17,13,7.50
2017,12,11,17,14,7.60
2017,12,11,17,15,7.60
2017,12,11,17,16,7.60
2017,12,11,17,17,7.60
2017,12,11,17,18,7.60
2017,12,11,17,19,7.60
2017,12,11,17,20,7.60
2017,12,11,17,21,7.60
2017,12,11,17,22,7.60
2017,12,11,17,23,7.50
2017,12,11,17,24,7.50
2017,12,11,17,25,7.50
2017,12,11,17,26,7.50
2017,12,11,17,27,7.60
2017,12,11,17,28,7.60
2017,12,11,17,29,7.50
2017,12,11,17,30,7.50
2017,12,11,17,31,7.50
2017,12,11,17,32,7.40
2017,12,11,17,33,7.40
2017,12,11,17,34,7.40
2017,12,11,17,35,7.40
2017,12,11,17,36,7.40
2017,12,11,17,37,7.40
2017,12,11,17,38,7.40
2017,12,11,17,39,7.40